Regional Weather Roundup
Issued by NWS

Home | Current Version | Previous Version | Text Only | Print | Product List | Glossary On
Versions: 1 2 3 4 5 6 7 8 9 10 11 12 13 14 15 16 17 18 19 20 21 22 23 24 25 26 27 28 29 30 31 32 33 34 35 36 37 38 39 40 41 42 43 44 45 46 47 48 49 50
000
ASUS43 KDMX 241603
RWRIA

WEATHER ROUNDUP FOR IOWA
NATIONAL WEATHER SERVICE DES MOINES IA
1100 AM CDT TUE MAY 24 2016

NOTE: "FAIR" INDICATES FEW OR NO CLOUDS BELOW 12,000 FEET WITH NO
SIGNIFICANT WEATHER AND/OR OBSTRUCTIONS TO VISIBILITY.

* - THESE STATIONS ARE NOT NWS STATIONS...THUS NOT UNDER NWS
QUALITY CONTROL.  THEY ALSO DO NOT REPORT WEATHER SUCH
AS PRECIPITATION OR FOG.

IAZ001>003-012>014-020>022-031>034-043>046-241700-
   NORTHWEST IOWA

CITY           SKY/WX    TMP DP  RH WIND       PRES   REMARKS
CARROLL *      PTSUNNY   70  64  83 SW9       29.90F
CHEROKEE *     CLOUDY    68  65  89 SW7       29.89S
DENISON *      SUNNY     68  64  88 S6        29.88S
LE MARS *      MOSUNNY   70  64  83 S9        29.88F
ORANGE CITY *  MOSUNNY   70  64  83 S9        29.88S
SHELDON *      MOSUNNY   68  64  88 S8G15     29.88R
SIOUX CITY     CLOUDY    69  63  81 SE5       29.88S
SPENCER        PTSUNNY   70  62  76 SW12      29.89S
STORM LAKE *   MOSUNNY   70  64  83 SW10      29.91R
$$

IAZ055>058-069>071-079>083-090>094-241700-
   SOUTHWEST IOWA

CITY           SKY/WX    TMP DP  RH WIND       PRES   REMARKS
ATLANTIC *     CLOUDY    68  64  88 SW7       29.91S
AUDUBON *        N/A     68  64  88 SW6       29.92S
CLARINDA *       N/A     68  64  88 MISG      29.93F
COUNCIL BLFS * SUNNY     68  63  83 SW9       29.89F
CRESTON *      CLOUDY    70  64  83 SW10      29.95S
HARLAN  *        N/A    N/A N/A N/A MISG        N/A
LAMONI         PTSUNNY   71  63  75 SW13      29.96R
RED OAK *      CLOUDY    68  63  83 VRB5G14   29.87F
SHENANDOAH *   CLOUDY    68  63  83 SE7G21    29.86F
$$

IAZ047>049-059>061-072>074-084-241700-
   CENTRAL IOWA

CITY           SKY/WX    TMP DP  RH WIND       PRES   REMARKS
AMES           CLOUDY    70  65  84 SW7       29.92R
ANKENY *       CLOUDY    70  64  83 SW8       29.93R
BOONE *        CLOUDY    70  64  83 SW7       29.91S
CHARITON *     MOSUNNY   73  63  68 SW10      29.94R
DES MOINES     CLOUDY    70  62  76 SW7       29.93R
GRINNELL*      CLOUDY    72  61  68 S10       29.94R
KNOXVILLE *    CLOUDY    73  63  68 SW9       29.92R
MARSHALLTOWN   PTSUNNY   72  63  73 SW7       29.93R
NEWTON *       CLOUDY    72  64  78 S10       29.93R
PERRY *          N/A     70  66  88 SW9       29.92R
$$

IAZ004>006-015-016-023>025-035-036-241700-
   NORTH CENTRAL IOWA

CITY           SKY/WX    TMP DP  RH WIND       PRES   REMARKS
ALGONA *       CLOUDY    72  63  73 SW9G16    29.91R
CLARION *      CLOUDY    70  64  83 SW10      29.92R
ESTHERVILLE    CLOUDY    70  62  76 W12       29.89R
FORT DODGE *   CLOUDY    70  61  73 SW8       29.92S
MASON CITY     CLOUDY    70  63  78 SW9       29.93R
FOREST CITY *  SUNNY     68  61  77 SW7       29.92R
WEBSTER CITY * CLOUDY    70  66  88 SW9       29.90S
IOWA FALLS *     N/A     73  64  73 SW10      29.94R
$$

IAZ007>011-017>019-026>030-037>042-050>054-066-241700-
   NORTHEAST IOWA

CITY           SKY/WX    TMP DP  RH WIND       PRES   REMARKS
CEDAR RAPIDS   PTSUNNY   73  65  75 S13       29.93S
CHARLES CITY * MOSUNNY   72  63  73 S6        29.94R
CLINTON *      CLOUDY    77  62  59 S13       29.96S
DECORAH *      CLOUDY    70  63  78 VRB3      29.93R
DUBUQUE        MOSUNNY   73  62  68 S9        29.95S
MONTICELLO *   DRIZZLE   73  61  64 SW10G18   29.94R
OELWEIN *      MOSUNNY   75  61  60 SW9G16    29.93S
WATERLOO       MOSUNNY   74  62  66 SW7       29.92
$$

IAZ064-065-067-068-078-241700-
   EAST CENTRAL IOWA

CITY           SKY/WX    TMP DP  RH WIND       PRES   REMARKS
DAVENPORT      PTSUNNY   80  59  48 S14       29.96S HX  81
IOWA CITY      PTSUNNY   76  63  64 S10       29.96S
MT. PLEASANT * CLOUDY    77  63  61 S12       29.97S
MUSCATINE *    MOSUNNY   79  63  57 S9G17     29.95S HX  80
QUAD CITIES    MOSUNNY   80  60  50 S12G20    29.94F HX  81
$$

IAZ062-063-075>077-085>089-095>099-241700-
   SOUTHEAST IOWA

CITY           SKY/WX    TMP DP  RH WIND       PRES   REMARKS
BURLINGTON     MOSUNNY   76  62  62 S12       29.96F
FAIRFIELD *      N/A    N/A N/A N/A MISG        N/A
FORT MADISON * PTSUNNY   73  61  64 S8        29.98S
KEOKUK *       MOSUNNY   75  63  64 S8        29.97S
OSKALOOSA *    PTSUNNY   75  63  64 S7        29.93F
OTTUMWA        CLOUDY    75  64  68 S8        29.93S
WASHINGTON *   MOSUNNY   77  64  65 S10G18    29.97S
$$

ABBREVIATIONS USED IN REMARKS
   TC - TEMPERATURES IN CELSIUS
  WCI - WIND CHILL INDEX
   HX - HEAT INDEX
  VSB - VISIBILITY
$$





USA.gov is the U.S. government's official web portal to all federal, state and local government web resources and services.